User: anonymous   Login
Location: Drocourt
(49.0571°N, 1.7669°E)
Time: 15:58:48
(UTC+00:00)
Language:

Tiros 1 despin weight - Orbit

View from above orbital plane
View from above orbital plane
View from above satellite
View from above satellite

Ground track
Ground track

The orbit data is extracted from the following two-line orbital elements,

1   115U 60002D   24104.15495420  .00003076  00000-0  34574-3 0  9998
2   115  48.1669  28.0473 0031625 294.5210  65.2409 14.88879244420408
Epoch (UTC): 13 April 2024 03:43:08
Eccentricity: 0.0031625
inclination: 48.1669°
perigee height: 579 km
apogee height: 623 km
right ascension of ascending node: 28.0473°
argument of perigee: 294.5210°
revolutions per day: 14.88879244
mean anomaly at epoch: 65.2409°
orbit number at epoch: 42040

The dashed part of the orbit path shows where the satellite is in the earth's shadow,  

DLR